Le nostre stazioni meteo in Italia

Pubblicità
Il mio iltempo24.it
Capo Carbonara, Italia (16564): Temperatura & dewpoint: 14.10.2017 09:00:00 - 20.10.2017 09:00:00 (CEST)Capo Carbonara, Italia (16564): velocità del vento: 14.10.2017 09:00:00 - 20.10.2017 09:00:00 (CEST)Capo Carbonara, Italia (16564): direzione del vento: 14.10.2017 09:00:00 - 20.10.2017 09:00:00 (CEST)Capo Carbonara, Italia (16564): reduced air pressure: 14.10.2017 09:00:00 - 20.10.2017 09:00:00 (CEST)Capo Carbonara, Italia (16564): visibility: 14.10.2017 09:00:00 - 20.10.2017 09:00:00 (CEST)
Data & Tempo tt [°C] td [°C] ff [km/h] ff [kn] dd ppp [hPa] vv [km]
20.10.2017 09:00:00 - - - - - - -
20.10.2017 08:00:00 20,8 16,6 29 16 SE 1014,0 10
20.10.2017 07:00:00 20,0 16,0 29 16 ESE - 10
20.10.2017 06:00:00 20,0 16,0 28 15 ESE - 10
20.10.2017 05:00:00 20,0 16,2 26 14 ESE 1013,8 10
20.10.2017 04:00:00 20,0 16,0 28 15 ESE - 10
20.10.2017 03:00:00 20,0 16,0 29 16 ESE - 10
20.10.2017 02:00:00 20,0 16,3 29 16 ESE 1014,1 10
20.10.2017 01:00:00 20,0 17,0 28 15 ESE - 10
20.10.2017 00:00:00 20,0 17,0 24 13 ESE - 10
19.10.2017 23:00:00 20,2 16,7 24 13 ESE 1014,2 10
19.10.2017 22:00:00 20,0 17,0 24 13 ESE - 10
19.10.2017 21:00:00 20,0 17,0 29 16 E - 10
19.10.2017 20:00:00 21,2 17,6 28 15 ESE 1013,7 10
19.10.2017 19:00:00 22,0 15,0 24 13 ESE - 10
19.10.2017 18:00:00 22,0 17,0 22 12 ESE - 10
19.10.2017 17:00:00 24,2 17,5 22 12 ESE 1013,8 10
19.10.2017 16:00:00 25,0 18,0 24 13 ESE - 10
19.10.2017 15:00:00 26,0 19,0 28 15 ESE - 10
19.10.2017 14:00:00 26,8 17,9 28 15 ESE 1014,9 10
19.10.2017 13:00:00 25,0 19,0 31 17 SE - 10
19.10.2017 12:00:00 25,0 18,0 34 18 ESE - 10
19.10.2017 11:00:00 22,2 17,6 28 15 E 1015,9 10
19.10.2017 10:00:00 22,0 18,0 26 14 E - 10
19.10.2017 09:00:00 20,0 16,0 24 13 ESE - 10
19.10.2017 08:00:00 20,0 16,3 22 12 SE 1015,8 10
19.10.2017 07:00:00 20,0 16,0 21 11 ESE - 10
19.10.2017 06:00:00 20,0 16,0 18 10 NE - 10
19.10.2017 05:00:00 20,0 16,4 18 10 NE 1016,0 10
19.10.2017 04:00:00 20,0 17,0 18 10 NE - 10
19.10.2017 03:00:00 20,0 17,0 13 7 NNE - 10
19.10.2017 02:00:00 20,2 16,7 13 7 ENE 1017,0 10
19.10.2017 01:00:00 20,0 16,0 15 8 ENE - 10
19.10.2017 00:00:00 20,0 16,0 15 8 ENE - 10
18.10.2017 23:00:00 20,0 16,4 15 8 E 1017,5 10
18.10.2017 22:00:00 20,0 17,0 15 8 ESE - 10
18.10.2017 21:00:00 20,0 17,0 16 9 E - 10
18.10.2017 20:00:00 20,4 16,8 16 9 E 1017,3 10
18.10.2017 19:00:00 21,0 17,0 16 9 E - 10
18.10.2017 18:00:00 23,0 18,0 13 7 E - 10
18.10.2017 17:00:00 23,6 17,8 22 12 E 1017,3 10
18.10.2017 16:00:00 24,0 18,0 22 12 ESE - 10
18.10.2017 15:00:00 24,0 18,0 18 10 E - 10
18.10.2017 14:00:00 23,4 17,4 22 12 E 1018,6 10
18.10.2017 13:00:00 23,0 17,0 22 12 E - 10
18.10.2017 12:00:00 22,0 17,0 22 12 E - 10
18.10.2017 11:00:00 21,2 16,8 22 12 NNE 1019,9 10
18.10.2017 10:00:00 20,0 16,0 18 10 NNE - 10
18.10.2017 09:00:00 19,0 15,0 18 10 NNE - 10
18.10.2017 08:00:00 18,0 14,5 15 8 NNE 1020,0 10
18.10.2017 07:00:00 18,0 14,0 18 10 N - 10
18.10.2017 06:00:00 17,0 14,0 11 6 NE - 10
18.10.2017 05:00:00 17,4 13,9 9 5 ENE 1020,3 10
18.10.2017 04:00:00 18,0 14,0 15 8 NNE - 10
18.10.2017 03:00:00 19,0 15,0 11 6 NE - 10
18.10.2017 02:00:00 19,0 15,1 9 5 NE 1022,0 10
18.10.2017 01:00:00 18,0 15,0 11 6 NE - 10
18.10.2017 00:00:00 18,0 15,0 9 5 ENE - 10
17.10.2017 23:00:00 18,8 15,3 9 5 NNE 1023,0 10
17.10.2017 22:00:00 19,0 15,0 11 6 NNE - 10
17.10.2017 21:00:00 19,0 15,0 11 6 NNE - 10
17.10.2017 20:00:00 19,6 15,7 11 6 ENE 1023,0 10
17.10.2017 19:00:00 20,0 16,0 15 8 NE - 10
17.10.2017 18:00:00 23,0 16,0 22 12 ENE - 10
17.10.2017 17:00:00 23,0 16,3 26 14 NE 1022,8 10
17.10.2017 16:00:00 - - - - - - -
17.10.2017 15:00:00 - - - - - - 10
17.10.2017 14:00:00 23,8 16,3 28 15 NNE 1024,7 10
17.10.2017 13:00:00 23,0 16,0 18 10 NE - 10
17.10.2017 12:00:00 22,0 15,0 18 10 NE - 10
17.10.2017 11:00:00 20,8 15,1 15 8 NNE 1025,5 10
17.10.2017 10:00:00 19,0 15,0 16 9 ENE - 10
17.10.2017 09:00:00 18,0 15,0 15 8 NE - 10
17.10.2017 08:00:00 17,6 14,1 16 9 NE 1025,4 10
17.10.2017 07:00:00 17,0 14,0 16 9 NE - 10
17.10.2017 06:00:00 18,0 14,0 21 11 NE - 10
17.10.2017 05:00:00 17,8 14,3 21 11 NE 1025,3 10
17.10.2017 04:00:00 18,0 15,0 18 10 NE - 10
17.10.2017 03:00:00 18,0 15,0 18 10 NE - 10
17.10.2017 02:00:00 18,0 14,7 16 9 NE 1026,5 10
17.10.2017 01:00:00 18,0 15,0 16 9 NE - 10
17.10.2017 00:00:00 19,0 15,0 16 9 NE - 10
16.10.2017 23:00:00 18,8 15,7 16 9 NE 1026,7 10
16.10.2017 22:00:00 19,0 16,0 16 9 NE - 10
16.10.2017 21:00:00 19,0 16,0 18 10 NE - 10
16.10.2017 20:00:00 19,4 15,9 16 9 NE 1026,7 10
16.10.2017 19:00:00 20,0 17,0 16 9 ENE - 10
16.10.2017 18:00:00 22,0 18,0 13 7 ENE - 10
16.10.2017 17:00:00 23,0 16,8 18 10 ENE 1026,4 10
16.10.2017 16:00:00 23,0 17,0 18 10 ENE - 10
16.10.2017 15:00:00 23,0 17,0 21 11 ENE - 10
16.10.2017 14:00:00 24,0 17,7 22 12 ENE 1026,9 10
16.10.2017 13:00:00 24,0 17,0 24 13 ENE - 10
16.10.2017 12:00:00 22,0 17,0 24 13 ENE - 10
16.10.2017 11:00:00 21,0 16,2 22 12 ENE 1027,6 10
16.10.2017 10:00:00 19,0 14,0 18 10 NE - 10
16.10.2017 09:00:00 17,0 14,0 15 8 ENE - 10
16.10.2017 08:00:00 17,0 13,1 9 5 ENE 1027,1 10
16.10.2017 07:00:00 17,0 13,0 4 2 NE - 10
16.10.2017 06:00:00 17,0 14,0 5 3 NNE - 10
16.10.2017 05:00:00 17,2 14,5 21 11 NE 1027,0 10
16.10.2017 04:00:00 18,0 15,0 18 10 NE - 10
16.10.2017 03:00:00 18,0 15,0 16 9 NE - 10
16.10.2017 02:00:00 17,6 15,0 15 8 NNE 1027,4 10
16.10.2017 01:00:00 17,0 14,0 16 9 NNE - 10
16.10.2017 00:00:00 18,0 15,0 13 7 NE - 10
15.10.2017 23:00:00 18,0 15,4 15 8 NE 1027,8 10
15.10.2017 22:00:00 18,0 15,0 15 8 NE - 10
15.10.2017 21:00:00 19,0 16,0 13 7 NE - 10
15.10.2017 20:00:00 19,0 15,5 16 9 ENE 1027,7 10
15.10.2017 19:00:00 20,0 15,0 18 10 ENE - 10
15.10.2017 18:00:00 22,0 16,0 18 10 ENE - 10
15.10.2017 17:00:00 22,0 15,6 21 11 ENE 1027,5 10
15.10.2017 16:00:00 23,0 16,0 21 11 ENE - 10
15.10.2017 15:00:00 23,0 16,0 22 12 ENE - 10
15.10.2017 14:00:00 23,4 16,5 21 11 ENE 1027,8 10
15.10.2017 13:00:00 23,0 17,0 21 11 ENE - 10
15.10.2017 12:00:00 22,0 16,0 16 9 ENE - 10
15.10.2017 11:00:00 20,4 15,6 16 9 ENE 1028,7 10
15.10.2017 10:00:00 20,0 15,0 15 8 NE - 10
15.10.2017 09:00:00 18,0 14,0 15 8 NNE - 10
15.10.2017 08:00:00 17,6 14,1 15 8 NNE 1027,9 10
15.10.2017 07:00:00 17,0 14,0 5 3 NNE - 10
15.10.2017 06:00:00 17,0 14,0 13 7 N - 10
15.10.2017 05:00:00 17,4 13,9 11 6 NNE 1027,5 10
15.10.2017 04:00:00 18,0 14,0 13 7 N - 10
15.10.2017 03:00:00 18,0 15,0 11 6 N - 10
15.10.2017 02:00:00 17,4 14,3 16 9 NNE 1027,6 10
15.10.2017 01:00:00 18,0 14,0 21 11 N - 10
15.10.2017 00:00:00 18,0 14,0 18 10 NNE - 10
14.10.2017 23:00:00 18,2 14,3 16 9 NNE 1027,7 10
14.10.2017 22:00:00 19,0 15,0 13 7 NNE - 10
14.10.2017 21:00:00 19,0 15,0 16 9 NE - 10
14.10.2017 20:00:00 19,8 15,3 15 8 ENE 1027,2 10
14.10.2017 19:00:00 21,0 15,0 16 9 ENE - 10
14.10.2017 18:00:00 23,0 15,0 18 10 ENE - 10
14.10.2017 17:00:00 23,6 14,6 21 11 ENE 1026,6 10
14.10.2017 16:00:00 24,0 15,0 18 10 ENE - 10
14.10.2017 15:00:00 24,0 15,0 21 11 ENE - 10
14.10.2017 14:00:00 24,0 15,8 22 12 ENE 1026,9 10
14.10.2017 13:00:00 24,0 16,0 21 11 ENE - 10
14.10.2017 12:00:00 23,0 16,0 16 9 ENE - 10
14.10.2017 11:00:00 21,4 15,5 15 8 ENE 1027,4 10
14.10.2017 10:00:00 20,0 16,0 9 5 ENE - 10
14.10.2017 09:00:00 19,0 16,0 11 6 NE - 10

tt = Temperatura
td = dewpoint
ff = velocità del vento
dd = direzione del vento
ppp = reduced air pressure
vv = visibility

Stazioni seguenti

WeatherPro
AMSI
MeteoEarth